User: anonymous   Login
Location: Fort Hays State University
(38.8712°N, 99.3432°W)
Time: 00:07:53
(UTC-05:00)
Language:

ALOS - Orbit

View from above orbital plane
View from above orbital plane
View from above satellite
View from above satellite

Ground track
Ground track

The orbit data is extracted from the following two-line orbital elements,

1 28931U 06002A   16176.19580413  .00000198  00000-0  48055-4 0  9997
2 28931  97.8839 214.6654 0001926  60.7048 299.4346 14.62204322555143
Epoch (UTC): 24 June 2016 04:41:57
Eccentricity: 0.0001926
inclination: 97.8839°
perigee height: 685 km
apogee height: 687 km
right ascension of ascending node: 214.6654°
argument of perigee: 60.7048°
revolutions per day: 14.62204322
mean anomaly at epoch: 299.4346°
orbit number at epoch: 55514

The dashed part of the orbit path shows where the satellite is in the earth's shadow,  

DLR